Regional Weather Roundup
Issued by NWS Grand Forks, ND

Home | Current Version | Previous Version | Graphics & Text | Print | Product List | Glossary On
Versions: 1 2 3 4 5 6 7 8 9 10 11 12 13 14 15 16 17 18 19 20 21 22 23 24 25 26 27 28 29 30 31 32 33 34 35 36 37 38 39 40 41 42 43 44 45 46 47 48 49 50
000
ASUS43 KFGF 192310
RWRFGF
PRAIRIE TO PINES  WEATHER ROUNDUP
NATIONAL WEATHER SERVICE EASTERN NORTH DAKOTA/GRAND FORKS ND
600 PM CDT TUE SEP 19 2017

 **SATELLITE DATA USED TO AUGMENT SKY COVER AT AUTOMATED STATIONS**
 *****  WEATHER ACROSS EASTERN NORTH DAKOTA  *****

CITY           SKY/WX    TMP DP  RH WIND       PRES   REMARKS
GRAND FORKS    TSTM      69  66  90 SE16      29.53F
GRAND FRKS AFB TSTM      68  65  93 SE18      29.50F
DEVILS LAKE    RAIN      66  64  93 SE16      29.48S
FARGO          FAIR      73  64  73 SE21G31   29.42F
WAHPETON ARPT  FAIR      73  61  64 SE23G32   29.48F
$$

 ***** WEATHER ACROSS CENTRAL AND WESTERN NORTH DAKOTA  *****

CITY           SKY/WX    TMP DP  RH WIND       PRES   REMARKS
BISMARCK       FAIR      65  47  52 NW12G22   29.46R
MINOT          FAIR      65  53  65 W9        29.45R
JAMESTOWN      FAIR      66  61  84 SE12G22   29.44F
MINOT AFB      PTSUNNY   65  52  62 W16       29.42S
GARRISON         N/A     61  54  77 W14       29.49R
WILLISTON      CLOUDY    61  40  45 W20G26    29.51R
DICKINSON      LGT RAIN  54  50  86 SW9       29.57R
HETTINGER      LGT RAIN  51  47  86 W16       29.62R
$$

 *****  OTHER AIRPORT OBSERVATIONS IN OUR AREA  *****

CITY           SKY/WX    TMP DP  RH WIND       PRES   REMARKS
WALHALLA       FAIR     N/A N/A N/A SE16G23   29.47F
GRAFTON AIRPOR FAIR      68  66  94 SE23G35   29.49F
VALLEY CITY AR TSTM      64  64 100 E13G33    29.47F
CANDO          CLOUDY    64  64 100 SE21      29.46F
CAVALIER APRT  CLOUDY    72  63  73 SE16G25   29.47F
GWINNER        CLOUDY    73  66  78 SE18G28   29.46R
SHEYENNE NWR     N/A     74  67  77 SE23      29.95S
ROLLA          CLOUDY    63  63 100 S12G21    29.44S
 ***** THE ABOVE OBSERVATIONS ARE NON NWS ARE NOT QUALITY
       CONTROLLED AND MAY MIS-REPORT RAIN FOR SNOW...
$$

  *****  WEATHER ACROSS NORTHERN MINNESOTA  *****

CITY           SKY/WX    TMP DP  RH WIND       PRES   REMARKS
FLAG ISLAND    FAIR      66  59  77 E8        29.67S
WARROAD        FAIR      70  63  78 SE15G22   29.65F
ROSEAU         FAIR      70  61  73 SE21G26   29.62F
HALLOCK        FAIR      72  63  73 SE16      29.52F
THF RVR FALLS  FAIR      70  61  73 SE16      29.58F
BAUDETTE       PTSUNNY   68  59  73 SE12G22   29.69F
WASKISH        FAIR      66  61  82 E7        29.69F
CROOKSTON      PTSUNNY   72  63  73 SE14      29.55F
STEPHEN NDAWN    N/A     72  61  68 SE14        N/A
GREENBUSH NDAW   N/A     68  61  77 SE14        N/A
$$
  *****  WEATHER ACROSS CENTRAL AND WEST MINNESOTA  *****

CITY           SKY/WX    TMP DP  RH WIND       PRES   REMARKS
FOSSTON        FAIR      68  61  77 SE10G21   29.60F
BEMIDJI        FAIR      68  61  77 SE16G23   29.65F
PARK RAPIDS    CLOUDY    72  63  73 SE20      29.64F
ELBOW LAKE     FAIR      72  65  78 SE17G29   29.54F HAZE
WADENA         CLOUDY    72  63  73 SE15G26   29.62F
DETROIT LAKES  PTSUNNY   72  63  73 SE23G35   29.57F
MOORHEAD       FAIR      73  63  68 SE22G28   29.47F
FERGUS FALLS   FAIR      73  64  73 SE22      29.51F
MORRIS MN      FAIR      75  66  73 SE22G31   29.53F
STAPLES        CLOUDY    72  61  68 SE12G17   29.65F
$$
  *****  WEATHER ELSEWHERE ACROSS MINNESOTA  *****

CITY           SKY/WX    TMP DP  RH WIND       PRES   REMARKS
DULUTH         FAIR      62  55  77 E16G23    29.82F
INTRNTL FALLS  FAIR      68  59  73 SE8       29.74F
ELY            FAIR      64  55  72 SE10      29.84S
CLOQUET        CLOUDY    63  55  77 E13       29.80F
WHEATON        FAIR      75  64  69 SE20G28   29.50F
BRAINERD       FAIR      71  62  73 SE10G20   29.69F
HIBBING        FAIR      67  60  78 SE14      29.78F
ALEXANDRIA     FAIR      73  64  73 SE22G28   29.61F
SAINT CLOUD    FAIR      75  64  68 SE16G22   29.67F
MINNEAPOLIS    CLOUDY    77  63  61 SE16      29.71F
$$

  *****  WEATHER ACROSS SOUTH DAKOTA  *****

CITY           SKY/WX    TMP DP  RH WIND       PRES   REMARKS
SIOUX FALLS    CLOUDY    80  70  71 SE15G26   29.51F
BROOKINGS      PTSUNNY   75  67  76 S22G28    29.53S
WATERTOWN      FAIR      76  67  73 S22G35    29.50R
HURON          FAIR      82  68  62 S22G32    29.45R
SISSETON         N/A     76  67  73 SE20G26   29.47F
ABERDEEN       FAIR      81  67  62 S23G32    29.42F
MITCHELL       CLOUDY    83  68  60 S23G33    29.46R
PIERRE         FAIR      80  61  52 SW9       29.42R
MOBRIDGE       FAIR      75  65  70 W8        29.44R
RAPID CITY     LGT RAIN  61  48  63 W6        29.64R
$$

  *****  SOME WEATHER IN NEARBY STATES *****

CITY           SKY/WX    TMP DP  RH WIND       PRES   REMARKS
GLASGOW MT       N/A     58  35  42 W17       29.55S
GREAT FALLS MT FAIR      53  28  38 SW18      29.64R
CHEYENNE WY    FAIR      55  29  36 N29G41    29.79R
SCOTTSBLUFF NE FAIR      65  36  34 NW28G41   29.70R
OMAHA NE       PTSUNNY   87  67  51 S24G37    29.59F HX  90
DES MOINES IA  FAIR      83  67  58 SE23G29   29.72F
DAVENPORT IA   FAIR      76  65  68 SE14      29.87F
CHICAGO IL     FAIR      74  62  66 E10       29.91F
EAU CLAIRE WI  FAIR      76  61  59 SE15      29.80F
LA CROSSE WI   FAIR      81  63  54 SE9       29.80F
$$

  *****  SOME NATIONAL WEATHER *****

CITY           SKY/WX    TMP DP  RH WIND       PRES   REMARKS
LA GUARDIA NY  LGT RAIN  73  66  78 NE21G28   29.88S
RALEIGH NC     FAIR      81  61  50 N3        29.93R
ATLANTA GA     MOCLDY    85  62  46 N8        29.98R
NEW ORLEANS LA PTSUNNY   85  73  67 S7        29.92S HX  91
OKLAHOMA CITY  FAIR      91  68  46 S20G26    29.72S HX  95
ALBUQUERQUE NM FAIR      86  14   7 W17G28    29.91F
SALT LAKE CITY PTSUNNY   62  35  36 N10       29.91F
LOS ANGELES CA FAIR      74  62  66 SW14      29.87F
BOISE ID       PTSUNNY   59  34  39 W8        29.87F
SEATTLE WA     PTSUNNY   59  50  72 S10       29.74S
$$

*** WEATHER ACROSS MANITOBA...SASKATCHEWAN AND ONTARIO ***
                ***ONTARIO***

CITY           SKY/WX    TMP DP  RH WIND       PRES   REMARKS
GERALDTON      MOCLDY    64  46  52 S7        30.02S
THUNDER BAY    MOCLDY    59  54  82 E17       29.94F
SIOUX LOOKOUT  CLOUDY    64  57  77 SE7       29.84S
TORONTO        MOCLDY    75  64  69 E6        29.98S
BIG TROUT LK   CLEAR     57  39  51 SE5       29.98R
PICKLE LAKE    CLOUDY    57  54  88 E9        29.93F
DRYDEN         MOSUNNY   64  57  77 E7        29.79F
KENORA         CLOUDY    64  59  82 SE12G17   29.72F
$$
                *** MANITOBA***

CITY           SKY/WX    TMP DP  RH WIND       PRES   REMARKS
BRANDON        TSTM      63  61  94 SE13      29.42F
DAUPHIN        LGT RAIN  59  57  94 SE30G38   29.40F
ISLAND LAKE    NOT AVBL
PILOT MOUND      N/A     64  61  88 SE17G23     N/A
THE PAS        LGT RAIN  54  48  82 E13G18    29.55F
THOMPSON       CLOUDY    57  36  44 E9G20     29.84S
WINNIPEG       CLOUDY    64  59  82 E16G24    29.52F
LYNN LAKE      PTSUNNY   55  37  50 E14G20    29.81R
CHURCHILL      MOCLDY    45  39  81 E14       30.04R
GILLAM         PTSUNNY   55  37  50 E6        29.93S
$$
                ***SASKATCHEWAN***

CITY           SKY/WX    TMP DP  RH WIND       PRES   REMARKS
ESTEVAN        MOSUNNY   59  48  67 W14G22    29.47R
KINDERSLEY     PTSUNNY   52  37  58 NW12G20   29.48R
LLOYDMINSTER   CLOUDY    45  37  76 W12       29.44R
PRINCE ALBERT  LGT RAIN  54  52  94 E16       29.38F FOG
REGINA         PTSUNNY   57  45  62 W21G26    29.44R
YORKTON        CLOUDY    57  54  88 SW13      29.36S
N. BATTLEFORD  CLOUDY    48  41  76 W13G18    29.46R
LA RONGE       LGT RAIN  50  48  93 NE17G24   29.57F FOG
SASKATOON      CLOUDY    50  46  87 W14       29.43R
SWIFT CURRENT  MOSUNNY   55  34  44 NW24      29.50R
$$
NOTE: THESE ARE AUTOMATED STATIONS WITH LIMITED QUALITY CONTROL
      "FAIR" INDICATES FEW OR NO CLOUDS BELOW 12,000 FEET WITH NO
      SIGNIFICANT WEATHER AND/OR OBSTRUCTIONS TO VISIBILITY.
      SKY/WX - SKY CONDITION AND SIGNIFICANT WEATHER.
      TMP - AIR TEMPERATURE.    DP   - DEWPOINT TEMPERATURE.
      RH  - RELATIVE HUMIDITY.  PRES - PRESSURE.
      HX  - HEAT INDEX.         WCI  - WIND CHILL INDEX.
$



USA.gov is the U.S. government's official web portal to all federal, state and local government web resources and services.